User: anonymous   Login
Location: Plum
(40.5000°N, 79.7500°W)
Time: 03:09:39
(UTC-04:00)
Language:

Cosmos 1825 - Orbit

View from above orbital plane
View from above orbital plane
View from above satellite
View from above satellite

Ground track
Ground track

The orbit data is extracted from the following two-line orbital elements,

1 17566U 87024A   17149.93124631 +.00001044 +00000-0 +48883-4 0  9991
2 17566 082.5038 308.2535 0002318 285.6400 074.4578 15.18654436650782
Epoch (UTC): 29 May 2017 22:20:59
Eccentricity: 0.0002318
inclination: 82.5038°
perigee height: 508 km
apogee height: 511 km
right ascension of ascending node: 308.2535°
argument of perigee: 285.6400°
revolutions per day: 15.18654436
mean anomaly at epoch: 74.4578°
orbit number at epoch: 65078

The dashed part of the orbit path shows where the satellite is in the earth's shadow,  

DLR